This is the latest recevied weather packets stored in our database for station/object KK6LVQ-13. If no packets are shown the sender has not sent any weather packets the latest 10 day(s).
| Time | Temp. | Humidity | Pressure | Rain* | Wind** | Luminosity | Snow |
|---|---|---|---|---|---|---|---|
| 1777927163 | 14.44° C | 73% | 1020.8 hPa | 0 mm | - | 149 W/m² | - |
| 1777926860 | 14.44° C | 74% | 1020.7 hPa | 0 mm | - | 171 W/m² | - |
| 1777926555 | 14.44° C | 74% | 1021 hPa | 0 mm | - | 210 W/m² | - |
| 1777926253 | 15° C | 72% | 1020.8 hPa | 0 mm | - | 273 W/m² | - |
| 1777925949 | 14.44° C | 74% | 1021 hPa | 0 mm | - | 529 W/m² | - |
| 1777925647 | 14.44° C | 74% | 1020.7 hPa | 0 mm | - | 807 W/m² | - |
| 1777925344 | 13.89° C | 75% | 1020.9 hPa | 0 mm | - | 244 W/m² | - |
| 1777925040 | 13.89° C | 76% | 1020.9 hPa | 0 mm | - | 226 W/m² | - |
| 1777924737 | 13.89° C | 76% | 1020.8 hPa | 0 mm | - | 207 W/m² | - |
| 1777924432 | 14.44° C | 76% | 1020.9 hPa | 0 mm | - | 180 W/m² | - |
| 1777924130 | 13.89° C | 76% | 1020.8 hPa | 0 mm | - | 176 W/m² | - |
| 1777923825 | 14.44° C | 76% | 1021 hPa | 0 mm | - | 199 W/m² | - |
| 1777923521 | 14.44° C | 75% | 1020.8 hPa | 0 mm | - | 240 W/m² | - |
| 1777923219 | 14.44° C | 75% | 1020.9 hPa | 0 mm | - | 266 W/m² | - |
| 1777922918 | 14.44° C | 74% | 1020.9 hPa | 0 mm | - | 290 W/m² | - |
| 1777922615 | 15° C | 74% | 1020.9 hPa | 0 mm | - | 344 W/m² | - |
| 1777922313 | 14.44° C | 75% | 1020.9 hPa | 0 mm | - | 335 W/m² | - |
| 1777922011 | 14.44° C | 76% | 1021 hPa | 0 mm | - | 334 W/m² | - |
| 1777921706 | 13.89° C | 77% | 1020.8 hPa | 0 mm | - | 335 W/m² | - |
| 1777921402 | 13.89° C | 77% | 1021 hPa | 0 mm | - | 246 W/m² | - |
| 1777921099 | 13.89° C | 77% | 1020.9 hPa | 0 mm | - | 228 W/m² | - |
| 1777920796 | 13.89° C | 77% | 1021.1 hPa | 0 mm | - | 209 W/m² | - |
| 1777920492 | 13.89° C | 78% | 1021.1 hPa | 0 mm | - | 191 W/m² | - |
| 1777920188 | 13.33° C | 78% | 1020.9 hPa | 0 mm | - | 143 W/m² | - |
| 1777919884 | 13.33° C | 78% | 1021.1 hPa | 0 mm | - | 133 W/m² | - |
* Rain latest hour (hover to see other rain measurements)
** Current wind speed in m/s (hover to see current wind gust speed)